STARLINK-1239 (45193 NORAD) Tracking and Keplerian Element Data

This shows tracking and keplerian element data for the satellite.

Feedback or suggestion? Click here.




ElementValue
Catalog45193
NameSTARLINK-1239
Epoch Orbit2290
Epoch Day197.25001157
Epoch Year2020
RAAN309.7567
Inclination53.0009
Eccentricity0.0001347
Argument of Perigee125.8872
Mean Anonmoly69.937
Mean Motion15.055709
Decay Rate0.00030049
L11 45193U 20012R 20197.25001157 .00030049 00000-0 20732-2 0 9999
L22 45193 53.0009 309.7567 0001347 125.8872 69.9370 15.05570900 22905

Live tracking and technical data element details for STARLINK-1239 (NORAD 45193). STARLINK-1239 can be tracked NOW for your location showing map with azimuth and elevation plus other details from your city location.

Track the satellite on the map from your city or location and see movement details for azimuth, elevation, latitude, longitude, range, height, and movement on the map or in text.







IsCatalogInMostPopularTable: catalog: 45193, numindb: 26
Update: records affected: 1



GetName: 45193 STARLINK-1239

Hit Count: updated at: Thu, 16 Jul 2020 03:14:34 GMT